{"data":{"norad_id":64074,"epoch":"2026-09-19T08:36:02.790432Z","epoch_age_seconds":242159,"freshness":"STALE","line1":"1 64074U 25107L   26262.35836563  .00122500  00000+0  94403-3 0  9995","line2":"2 64074  42.9997  11.1691 0002411 285.2763  74.7838 15.70841630 77751","mean_motion":15.7084163,"eccentricity":0.0002411,"inclination_deg":42.9997,"raan_deg":11.1691,"arg_perigee_deg":285.2763,"mean_anomaly_deg":74.7838,"bstar":0.00094403,"rev_number":7775,"period_min":91.67060335675,"perigee_km":354.86668406074,"apogee_km":358.11412139433,"semimajor_km":6734.6274027275,"source":"CELESTRAK","updated_at":"2026-09-21T09:00:35.193631Z"}}